Torna al catalogo

STARLINK-37369

AttivoComunicazioniVLEO
NORAD 69529·PAYLOAD·🇺🇸 United States

Lanciato Jun 12, 2026 da Cape Canaveral Space Force Station

Loading…

Prossimi Passaggi (prossime 24 ore)

TLE

AggiornatoSource: CelesTrak SupGP

Epoca: Sep 15, 2026, 03:45 UTC

1 69529C 26133X   26258.15673611 -.00040022  00000+0 -11823-2 0  2583
2 69529  53.1573 254.3972 0001321  86.7537  61.8086 15.34415315    14

Traccia STARLINK-37369 in tempo reale con AllMySat

Download on the App Store